Regional Weather Roundup
Issued by NWS

Home | Current Version | Previous Version | Text Only | Print | Product List | Glossary On
Versions: 1 2 3 4 5 6 7 8 9 10 11 12 13 14 15 16 17 18 19 20 21 22 23 24 25 26 27 28 29 30 31 32 33 34 35 36 37 38 39 40 41 42 43 44 45 46 47 48 49 50
000
ASUS46 KSTO 290815
RWRCA

NORTHERN AND CENTRAL CA REGIONAL WEATHER ROUNDUP
NATIONAL WEATHER SERVICE SACRAMENTO CA
100 AM PDT THU JUN 29 2017

NOTE: FAIR INDICATES FEW OR NO CLOUDS BELOW 12,000 FEET WITH NO
SIGNIFICANT WEATHER AND/OR OBSTRUCTIONS TO VISIBILITY.

CAZ001-003-290900-
NORTHWEST AREA

CITY           SKY/WX    TMP DP  RH WIND       PRES   REMARKS
CRESCENT CITY  CLEAR     53  51  93 SE6       30.00S
UKIAH          CLEAR     62  50  64 CALM      29.91R
$$

CAZ006-505>513-290900-
BAY AREA

CITY           SKY/WX    TMP DP  RH WIND       PRES   REMARKS
SANTA ROSA     CLEAR     53  50  89 CALM      29.90R
SAN RAFAEL     N/A       55  MM  MM MISG
NAPA           PTCLDY    57  52  83 SW5       29.91S
CONCORD        CLEAR     59  52  77 S17       29.90S
OAKLAND CITY   N/A      MM  MM  MM MISG
OAKLAND        CLOUDY    60  54  80 NW3       29.95F
SAN FRAN CITY  N/A       55  MM  86 MISG
SAN FRAN ARPT  MOCLDY    57  51  80 W14G23    29.94F
LIVERMORE      CLEAR     56  51  84 W9        29.93S
HAYWARD        MOCLDY    59  50  72 W10       29.94F
REDWOOD CITY   N/A       56  MM  80 MISG
MOFFETT ARPT   PTCLDY    58  54  86 NE3       29.95S
SAN JOSE ARPT  CLEAR     58  54  86 NW3       29.95S
$$
CAZ034-037-514>518-290900-
CENTRAL COAST

CITY           SKY/WX    TMP DP  RH WIND       PRES   REMARKS
WATSONVILLE    CLOUDY    56  55  97 VRB3      29.96F
SALINAS        CLOUDY    57  53  86 W7        29.96S
MONTEREY       CLOUDY    56  53  90 SW9       29.98S
SAN LUIS OBISP CLOUDY    56  52  86 NW5       29.94F
SANTA MARIA    CLOUDY    55  54  96 W7        29.95F
$$
CAZ015-016-290900-
NORTHERN SACRAMENTO VALLEY

CITY           SKY/WX    TMP DP  RH WIND       PRES   REMARKS
REDDING        CLEAR     77  56  48 N6        29.85R
RED BLUFF      CLEAR     73  63  70 NW5       29.84S
OROVILLE       CLEAR     76  58  53 E6        29.84S
$$
CAZ016>018-290900-
SOUTHERN SACRAMENTO VALLEY

CITY           SKY/WX    TMP DP  RH WIND       PRES   REMARKS
AUBURN         CLEAR     70  54  56 E5        29.90S
BEALE AFB      CLEAR     67  58  71 S6        29.82S
LINCOLN        FAIR      68  52  56 S9        29.84R
MARYSVILLE     CLEAR     69  57  65 SE8       29.84R
SAC INTL ARPT  CLEAR     63  55  75 S9        29.83S
MATHER AIRPORT NOT AVBL
DOWNTOWN SAC   N/A       64  MM  MM MISG
SAC EXEC ARPT  CLEAR     61  54  77 S3        29.85R
VACAVILLE      CLEAR     64  52  64 SW9       29.84S
TRAVIS AFB     CLEAR     58  53  83 SW25G31   29.83R
$$
CAZ019>021-290900-
SAN JOAQUIN VALLEY

CITY           SKY/WX    TMP DP  RH WIND       PRES   REMARKS
STOCKTON       CLEAR     64  50  60 W12       29.86S
MODESTO        CLEAR     70  47  43 N6        29.84S
MERCED         CLEAR     66  53  63 CALM      29.85R
LEMOORE        CLEAR     70  44  39 NW10      29.84S
FRESNO         CLEAR     75  58  55 NW10      29.84S
HANFORD        CLEAR     74  54  49 NW10      29.85R
PORTERVILLE      N/A     68  54  60 SE5       29.86R
BAKERSFIELD    CLEAR     75  53  46 NW6       29.85R
$$
CAZ011-012-071-290900-
NORTHERN MOUNTAINS

CITY           SKY/WX    TMP DP  RH WIND       PRES   REMARKS
YREKA          CLEAR     60  34  37 NE8       30.03R
MOUNT SHASTA   CLEAR     59  39  47 CALM      30.04R
$$
CAZ011-012-071-290900-
SIERRA NEVADA MTNS

CITY           SKY/WX    TMP DP  RH WIND       PRES   REMARKS
BLUE CANYON    CLEAR     62  45  53 CALM      30.13S
TRUCKEE        CLEAR     43  36  75 CALM      30.17S
TAHOE VLY ARPT CLEAR     46  36  68 S5        30.17F
MAMMOTH LAKES  FAIR      47  36  63 CALM      30.21R
$$




USA.gov is the U.S. government's official web portal to all federal, state and local government web resources and services.